Flag for Japan Weather past 2 weeks in Fukuoka, Japan

Now
79 °F

Sprinkles. Broken clouds.


Feels Like: 83 °F
Forecast: 73 / 78 °F
Wind: 14 mph from Southeast

Location: Fukuoka Airport

Current Time: Sep 3, 2014 at 2:42:50 PM

Latest Report: Sep 3, 2014 at 2:00 PM


Visibility: N/A

Pressure: 29.71 "Hg

Humidity: 94%

Dew point: 77 °F

Location of FukuokaLocation

Historic Weather in Fukuoka — Graph

°F

Fukuoka temperature yesterday

Maximum temperature yesterday: 86 °F (at 11:00 AM)
Minimum temperature yesterday: 72 °F (at 2:30 AM)
Average temperature yesterday: 79 °F

Past Weeks' High & Low Weather Summary

 TemperatureHumidityPressure
High88 °F (Aug 21, 12:30 PM)100% (Aug 20, 6:30 AM)29.98 "Hg (Aug 20, 6:30 AM)
Low68 °F (Aug 30, 12:00 AM)48% (Aug 30, 2:00 PM)29.71 "Hg (Aug 25, 6:00 PM)
Average78 °F81%29.85 "Hg
* Reported Aug 19 1:00 PM — Sep 3 1:30 PM, Fukuoka, Weather by CustomWeather, © 2014

Note: Actual official high and low records may vary slightly from our data, if they occured in-between our weather recording intervals... More about our weather records

Advertising

Fukuoka weather history for previous 24 hours

 ConditionsComfort  
Time TempWeatherWind HumidityBarometerVisibility
1:30 PM
Sep 3
82 °FSprinkles. Broken clouds.18 mph74%29.71 "HgN/A
1:00 PM84 °FBroken clouds.17 mph70%29.71 "HgN/A
12:30 PM84 °FBroken clouds.16 mph74%29.71 "HgN/A
12:00 PM84 °FPartly sunny.15 mph70%29.74 "HgN/A
11:30 AM84 °FPartly sunny.18 mph70%29.74 "HgN/A
11:00 AM82 °FBroken clouds.13 mph74%29.74 "HgN/A
10:30 AM82 °FPartly sunny.13 mph74%29.74 "HgN/A
10:00 AM81 °FBroken clouds.15 mph79%29.77 "HgN/A
9:30 AM81 °FBroken clouds.14 mph79%29.77 "Hg6 mi
9:00 AM81 °FBroken clouds.14 mph79%29.77 "Hg6 mi
8:30 AM79 °FBroken clouds.15 mph84%29.74 "Hg6 mi
8:00 AM79 °FBroken clouds.15 mph84%29.74 "HgN/A
7:30 AM79 °FPartly sunny.18 mph79%29.74 "HgN/A
7:00 AM79 °FBroken clouds.17 mph79%29.74 "HgN/A
6:30 AM77 °FBroken clouds.13 mph83%29.74 "HgN/A
6:00 AM79 °FBroken clouds.14 mph79%29.74 "HgN/A
5:30 AM79 °FLight rain. Partly cloudy.14 mph79%29.74 "HgN/A
5:00 AM81 °FClear.10 mph70%29.74 "Hg10 mi
4:30 AM79 °FClear.13 mph79%29.74 "Hg10 mi
4:00 AM79 °FClear.8 mph79%29.74 "Hg10 mi
3:30 AM79 °FClear.13 mph79%29.74 "Hg10 mi
3:00 AM79 °FClear.13 mph79%29.71 "Hg10 mi
2:30 AM79 °FClear.15 mph74%29.74 "Hg10 mi
2:00 AM79 °FLight rain. Clear.12 mph79%29.74 "HgN/A
1:30 AM79 °FLight rain. Clear.14 mph79%29.77 "HgN/A
1:00 AM79 °FClear.10 mph79%29.77 "Hg10 mi
12:30 AM79 °FPartly cloudy.9 mph79%29.77 "HgN/A
12:00 AM77 °FClear.6 mph83%29.77 "Hg10 mi
11:30 PM
Sep 2
79 °FClear.5 mph74%29.77 "Hg10 mi
11:00 PM79 °FPartly cloudy.10 mph79%29.80 "HgN/A
10:30 PM81 °FLight rain. Passing clouds.7 mph74%29.80 "HgN/A
10:00 PM81 °FLight rain. Clear.10 mph74%29.77 "HgN/A
9:30 PM81 °FClear.8 mph74%29.80 "Hg10 mi
9:00 PM81 °FLight rain. Clear.5 mph74%29.80 "HgN/A
8:30 PM82 °FClear.5 mph70%29.80 "Hg10 mi
8:00 PM81 °FClear.3 mph79%29.80 "Hg10 mi
7:30 PM82 °FPassing clouds.5 mph70%29.80 "HgN/A
7:00 PM82 °FLight rain. Passing clouds.3 mph70%29.80 "HgN/A
6:30 PM82 °FPartly sunny.6 mph70%29.80 "HgN/A
6:00 PM82 °FPartly sunny.7 mph70%29.80 "HgN/A
5:30 PM82 °FBroken clouds.7 mph70%29.80 "HgN/A
5:00 PM84 °FBroken clouds.6 mph62%29.80 "HgN/A
4:30 PM86 °FBroken clouds.5 mph59%29.80 "HgN/A
4:00 PM86 °FPartly sunny.7 mph59%29.80 "HgN/A
3:30 PM86 °FPartly sunny.7 mph59%29.80 "HgN/A
3:00 PM84 °FPartly sunny.6 mph66%29.80 "HgN/A
2:30 PM84 °FPartly sunny.8 mph62%29.83 "HgN/A
2:00 PM86 °FPartly sunny.10 mph62%29.83 "HgN/A
Weather by CustomWeather, © 2014

See weather overviewHow to use our weather pages